[[{"header":{"parameterUnit":"m.s-1","parameterCategory":1,"la1":30.2991,"la2":30.254,"lo1":-89.0895,"lo2":-89.0444,"dy":0.0017,"dx":0.0017,"nx":28,"ny":28,"refTime":"2024-04-06T09:00:00:Z","depth":0,"parameterNumber":2,"parameterNumberName":"U-component_of_WINDS"},"data":[0,0,0,0,0,0,0,0,0,0,0,0,0,0,0,0,0,0,0,0,0,0,0,0,0,0,0,0,0,0,0,0,0,0,0,0,0,0,0,0,0,0,0,0,0,0,0,0,0,0,0,0,0,0,0,0,0,0,-1.9883,-1.9884,0,-1.995,-1.9951,-1.9952,-1.9962,-1.9961,-1.9961,-1.996,-2.003,-2.0032,-2.0035,0,0,0,0,0,0,0,0,0,0,0,0,0,-1.9764,-1.9766,-1.9883,-1.9884,-1.9885,-1.995,-1.9951,-1.9952,-1.9962,-1.9961,-1.9961,-1.996,-2.0029,-2.0032,-2.0035,0,0,0,0,0,0,0,0,0,0,0,0,0,-1.9822,-1.9767,-1.9883,-1.9898,-1.99,-1.995,-1.9951,-1.9952,-1.9962,-1.9961,-1.9961,-1.996,-2.0028,-2.0032,-2.0035,-2.0076,0,0,-2.0046,-2.0048,0,0,0,0,0,0,0,0,-1.9819,-1.9826,-1.9895,-1.9897,-1.9899,-1.9947,-1.9935,-1.9994,-1.9963,-1.9939,-1.996,-1.9959,-2.0003,-2.0009,-2.0023,-2.0079,-2.0082,-2.0047,-2.0049,-2.005,-2.0051,0,0,0,0,0,0,0,-1.9815,-1.9824,-1.991,-1.9896,-1.9898,-1.9901,-1.9908,-1.9946,-1.9975,-1.9941,-1.9941,-1.9949,-2.0004,-2.002,-2.0025,-2.0083,-2.0046,-2.005,-2.0052,-2.0053,-2.0175,-2.0176,0,0,0,0,0,0,-1.9808,-1.982,-1.9908,-1.9912,-1.9856,-1.9904,-1.9912,-1.9932,-1.9975,-1.998,-1.995,-1.9949,-2.0014,-2.0021,-2.0027,-2.0077,-2.005,-2.0054,-2.0056,-2.0174,-2.0176,-2.0177,0,0,0,0,0,0,-1.9805,-1.9816,-1.9905,-1.9866,-1.9878,-1.9907,-1.993,-1.9934,-1.995,-1.9982,-1.9987,-1.9961,-2.0014,-2.0022,-2.0064,-2.008,-2.0055,-2.0059,-2.0173,-2.0175,-2.0176,-2.0178,0,0,0,0,0,0,-1.9802,-1.9815,-1.983,-1.9866,-1.988,-1.994,-1.9931,-1.9936,-1.9956,-1.9956,-1.9993,-1.9998,-2.0014,-2.0058,-2.0067,-2.0084,-2.0061,-2.0172,-2.0174,-2.0176,-2.0176,-2.0179,-2.0181,0,0,0,0,0,-1.9798,-1.9828,-1.9831,-1.9841,-1.99,-1.994,-1.9948,-1.9965,-1.9957,-1.9973,-1.9994,-1.9997,-2.0077,-2.0062,-2.0073,-2.0091,-2.0171,-2.0173,-2.0175,-2.0175,-2.0178,-2.0181,0,0,0,0,0,0,-1.9793,-1.9833,-1.9837,-1.988,-1.9907,-1.9942,-1.9963,-1.9968,-1.9998,-1.9996,-2.0016,-2.0024,-2.0064,-2.0082,-2.0065,-2.0133,-2.0123,-2.0128,-2.0119,-2.0123,-2.0125,-2.012,-2.0064,0,0,0,0,0,-1.9797,-1.9826,-1.986,-1.9895,-1.9908,-1.9933,-1.9951,-1.9962,-1.9991,-2.0002,-2.0026,-2.0054,-2.0085,-2.0105,-2.0136,-2.0179,-2.0187,-2.0197,-2.02,-2.0202,-2.0205,-2.0229,-2.0234,-2.0185,-2.0185,-2.0185,0,0,-1.9806,-1.9831,-1.9849,-1.9895,-1.9917,-1.9947,-1.9943,-1.9975,-1.9997,-2.0007,-2.0047,-2.0066,-2.0098,-2.014,-2.016,-2.0156,-2.0221,-2.0205,-2.0206,-2.0209,-2.0232,-2.0237,-2.0241,-2.0186,-2.0186,-2.0186,0,0,-1.9836,-1.9859,-1.989,-1.9912,-1.9946,-1.9962,-1.9969,-2.0004,-2.0017,-2.0057,-2.0065,-2.0093,-2.0146,-2.0169,-2.0188,-2.0228,-2.0232,-2.0237,-2.0251,-2.0274,-2.0278,-2.0281,-2.0295,-2.03,-2.0241,-2.0241,-2.0241,0,-1.9843,-1.9888,-1.9905,-1.9937,-1.9957,-1.9967,-1.9999,-2.002,-2.0062,-2.0075,-2.0071,-2.0138,-2.0161,-2.0208,-2.0218,-2.0233,-2.0242,-2.0232,-2.0276,-2.0279,-2.0283,-2.0296,-2.0301,-2.0241,-2.0241,-2.0241,-2.0241,0,-1.9894,-1.9926,-1.9947,-1.9987,-2.0009,-2.0041,-2.0063,-2.0084,-2.0093,-2.011,-2.0151,-2.0179,-2.0215,-2.0227,-2.0236,-2.0276,-2.0273,-2.0272,-2.0262,-2.0288,-2.03,-2.0306,-2.0242,-2.0241,-2.0241,-2.0241,0,0,-1.9924,-1.9972,-1.998,-1.9998,-2.0035,-2.006,-2.0093,-2.0128,-2.0145,-2.0174,-2.0201,-2.0247,-2.0246,-2.0267,-2.0279,-2.0299,-2.0328,-2.0296,-2.0297,-2.03,-2.0374,-2.0374,-2.0379,-2.0332,-2.0333,-2.0334,-2.0371,0,-1.9958,-2.0015,-2.0032,-2.008,-2.0109,-2.012,-2.0148,-2.0174,-2.0191,-2.0219,-2.0238,-2.0269,-2.0266,-2.0279,-2.03,-2.032,-2.0343,-2.0318,-2.0357,-2.0358,-2.0348,-2.0386,-2.0386,-2.042,-2.0376,-2.0377,-2.0377,0,-2.0006,-2.0035,-2.0086,-2.012,-2.0133,-2.0158,-2.0191,-2.0218,-2.0248,-2.0259,-2.0282,-2.0292,-2.0327,-2.0316,-2.0364,-2.0346,-2.0363,-2.0376,-2.0378,-2.0381,-2.0369,-2.039,-2.0431,-2.0436,-2.0386,-2.0385,-2.0384,0,-2.0022,-2.0074,-2.0111,-2.0126,-2.0167,-2.0184,-2.0201,-2.0231,-2.0251,-2.028,-2.0294,-2.0327,-2.0345,-2.0371,-2.039,-2.038,-2.0435,-2.0426,-2.0445,-2.0445,-2.0455,-2.0454,-2.0499,-2.0468,-2.0468,-2.0468,-2.0468,0,-2.0058,-2.0089,-2.0118,-2.0141,-2.0176,-2.0195,-2.0229,-2.0247,-2.0273,-2.03,-2.0311,-2.0336,-2.036,-2.0388,-2.0403,-2.044,-2.0448,-2.0458,-2.0461,-2.0456,-2.0455,-2.0467,-2.0465,-2.0469,-2.0469,-2.0469,-2.0468,0,-2.0081,-2.0102,-2.0143,-2.0178,-2.0187,-2.0211,-2.0241,-2.0264,-2.0281,-2.0315,-2.0324,-2.0352,-2.0385,-2.0407,-2.045,-2.046,-2.05,-2.0503,-2.049,-2.0491,-2.0508,-2.0506,-2.0562,-2.057,-2.0534,-2.0534,-2.0534,0,-2.0102,-2.0126,-2.0164,-2.0182,-2.02,-2.0229,-2.025,-2.027,-2.0291,-2.0327,-2.0345,-2.0379,-2.0408,-2.0461,-2.0485,-2.0518,-2.0522,-2.0539,-2.0527,-2.0521,-2.0521,-2.0519,-2.0522,-2.0541,-2.0541,-2.0541,-2.0542,0,-2.0138,-2.0148,-2.0176,-2.0209,-2.0233,-2.0259,-2.0286,-2.03,-2.0325,-2.0348,-2.0382,-2.0404,-2.0448,-2.0482,-2.0517,-2.0536,-2.0543,-2.0545,-2.0551,-2.0546,-2.0537,-2.0541,-2.0494,-2.0544,-2.0544,-2.0543,-2.0543,-2.0543,-2.0161,-2.0182,-2.0212,-2.0243,-2.0265,-2.029,-2.0313,-2.0333,-2.0362,-2.0399,-2.0409,-2.0445,-2.0474,-2.0522,-2.0542,-2.057,-2.0568,-2.0577,-2.0579,-2.058,-2.058,-2.0533,-2.0577,-2.0577,-2.0577,-2.0577,-2.0577,0,-2.0197,-2.0216,-2.0245,-2.0282,-2.0307,-2.0311,-2.0341,-2.0361,-2.0392,-2.042,-2.0447,-2.0487,-2.052,-2.0546,-2.058,-2.0598,-2.0602,-2.0606,-2.0605,-2.0609,-2.0581,-2.0572,-2.0602,-2.0602,-2.0602,-2.0602,-2.0602,-2.0602,-2.0219,-2.0255,-2.0267,-2.0315,-2.0334,-2.0369,-2.0385,-2.0408,-2.043,-2.0473,-2.05,-2.0517,-2.0544,-2.058,-2.0611,-2.0618,-2.063,-2.0633,-2.0641,-2.0614,-2.0611,-2.0608,-2.06,-2.0636,-2.0636,-2.0666,-2.0666,-2.0667]},{"header":{"parameterUnit":"m.s-1","parameterCategory":1,"la1":30.2991,"la2":30.254,"lo1":-89.0895,"lo2":-89.0444,"dy":0.0017,"dx":0.0017,"nx":28,"ny":28,"refTime":"2024-04-06T09:00:00:Z","depth":0,"parameterNumber":3,"parameterNumberName":"V-component_of_WINDS"},"data":[0,0,0,0,0,0,0,0,0,0,0,0,0,0,0,0,0,0,0,0,0,0,0,0,0,0,0,0,0,0,0,0,0,0,0,0,0,0,0,0,0,0,0,0,0,0,0,0,0,0,0,0,0,0,0,0,0,0,3.7929,3.7929,0,3.7955,3.7955,3.7955,3.792,3.7919,3.7918,3.7916,3.7941,3.7942,3.7944,0,0,0,0,0,0,0,0,0,0,0,0,0,3.7847,3.7849,3.7929,3.7929,3.793,3.7955,3.7955,3.7955,3.792,3.7919,3.7917,3.7916,3.794,3.7942,3.7944,0,0,0,0,0,0,0,0,0,0,0,0,0,3.7879,3.785,3.7929,3.7915,3.7914,3.7955,3.7955,3.7955,3.7921,3.7919,3.7917,3.7915,3.7939,3.7942,3.7945,3.7999,0,0,3.7953,3.7954,0,0,0,0,0,0,0,0,3.7877,3.7882,3.7917,3.7916,3.7915,3.7932,3.7935,3.797,3.7921,3.7918,3.7916,3.7914,3.7939,3.7942,3.7951,3.8,3.8001,3.7953,3.7955,3.7956,3.7957,0,0,0,0,0,0,0,3.7875,3.7881,3.7939,3.7917,3.7916,3.7907,3.7909,3.7941,3.7939,3.7918,3.7916,3.7919,3.7938,3.7948,3.7951,3.8001,3.7953,3.7955,3.7957,3.7958,3.8096,3.8098,0,0,0,0,0,0,3.7875,3.7879,3.7938,3.794,3.7891,3.791,3.7913,3.7929,3.7938,3.7938,3.7921,3.7918,3.7944,3.7948,3.7952,3.8016,3.7956,3.7958,3.796,3.8094,3.8097,3.8099,0,0,0,0,0,0,3.7873,3.788,3.7937,3.7909,3.7915,3.7913,3.7932,3.793,3.794,3.7941,3.794,3.7932,3.7943,3.7948,3.7988,3.8016,3.796,3.7962,3.8092,3.8095,3.8098,3.8145,0,0,0,0,0,0,3.7871,3.788,3.7901,3.791,3.7917,3.7973,3.7933,3.7932,3.7945,3.7941,3.795,3.795,3.7942,3.7984,3.799,3.8019,3.7964,3.8089,3.8093,3.8097,3.814,3.8149,3.8156,0,0,0,0,0,3.7868,3.7913,3.7902,3.791,3.7943,3.7975,3.7979,3.797,3.7947,3.7968,3.7969,3.795,3.8012,3.7988,3.7995,3.8025,3.8087,3.8092,3.8097,3.8137,3.8147,3.8156,0,0,0,0,0,0,3.7907,3.7914,3.7902,3.7951,3.7963,3.7969,3.7995,3.7981,3.7999,3.7994,3.7981,3.7983,3.8026,3.8029,3.8002,3.8078,3.8046,3.8052,3.8074,3.8084,3.8092,3.809,3.7967,0,0,0,0,0,3.7921,3.7947,3.7951,3.7994,3.8001,3.7997,3.801,3.8002,3.8014,3.8018,3.8021,3.8033,3.8055,3.8069,3.809,3.8141,3.8142,3.8165,3.8173,3.8179,3.8184,3.8212,3.8222,3.8114,3.8114,3.8114,0,0,3.7951,3.7958,3.7975,3.8002,3.801,3.8037,3.8001,3.8031,3.805,3.8022,3.806,3.8063,3.8075,3.812,3.8141,3.8124,3.8215,3.8185,3.819,3.8192,3.8217,3.8228,3.8237,3.8117,3.8117,3.8116,0,0,3.8019,3.8027,3.8063,3.8072,3.8085,3.8083,3.8092,3.81,3.8101,3.8139,3.8119,3.8141,3.818,3.8189,3.8198,3.827,3.8253,3.8277,3.8317,3.8344,3.8352,3.836,3.8385,3.8394,3.8282,3.8282,3.8282,0,3.8054,3.8093,3.8083,3.8114,3.8127,3.8104,3.814,3.8149,3.8168,3.8177,3.8159,3.8207,3.8213,3.826,3.8278,3.8286,3.8296,3.8276,3.8352,3.8359,3.8366,3.839,3.84,3.8285,3.8285,3.8285,3.8284,0,3.8136,3.8164,3.8191,3.8211,3.8226,3.826,3.8254,3.8271,3.8262,3.8261,3.8299,3.8306,3.8327,3.8338,3.8329,3.8384,3.8374,3.8354,3.8322,3.8379,3.8402,3.8411,3.8289,3.8288,3.8287,3.8287,0,0,3.8228,3.8242,3.8253,3.8261,3.8274,3.8295,3.8327,3.8349,3.8364,3.8377,3.8404,3.8437,3.8419,3.843,3.8422,3.8445,3.8501,3.8422,3.8422,3.8437,3.8562,3.8577,3.8588,3.849,3.8492,3.8493,3.8561,0,3.8296,3.8353,3.8344,3.8399,3.8424,3.8403,3.8431,3.8441,3.8442,3.8462,3.8462,3.8486,3.846,3.8467,3.8489,3.8489,3.8526,3.8484,3.8514,3.8515,3.8512,3.8599,3.8615,3.8679,3.857,3.8571,3.8572,0,3.8382,3.84,3.8457,3.8466,3.8476,3.8502,3.8521,3.8542,3.8553,3.8551,3.8564,3.8551,3.8583,3.855,3.8594,3.8566,3.8577,3.8579,3.8581,3.8584,3.8547,3.8604,3.8699,3.8709,3.8586,3.8585,3.8584,0,3.8444,3.8482,3.8521,3.8529,3.8541,3.8559,3.8565,3.8574,3.8588,3.8604,3.8613,3.8633,3.8643,3.8659,3.8652,3.8628,3.8696,3.8663,3.8695,3.8695,3.871,3.8709,3.8809,3.8718,3.8718,3.8718,3.8718,0,3.852,3.8556,3.8549,3.8573,3.8612,3.8602,3.8641,3.8644,3.8653,3.8677,3.8659,3.8682,3.8671,3.8692,3.8687,3.8723,3.8728,3.8728,3.8726,3.8729,3.8729,3.8736,3.8732,3.872,3.872,3.8719,3.8719,0,3.8596,3.8593,3.8634,3.8642,3.8644,3.8673,3.8679,3.8701,3.87,3.873,3.8737,3.8735,3.8759,3.8754,3.878,3.8777,3.8823,3.8815,3.8819,3.8817,3.885,3.8847,3.8957,3.8971,3.8872,3.8873,3.8873,0,3.8644,3.8672,3.8682,3.8698,3.8705,3.8729,3.8743,3.8734,3.8749,3.8764,3.8785,3.8808,3.8826,3.8866,3.8866,3.8886,3.8879,3.8916,3.8882,3.8885,3.888,3.8878,3.8881,3.8923,3.8924,3.8925,3.8926,0,3.8731,3.8729,3.875,3.8771,3.8788,3.8803,3.8817,3.883,3.8823,3.884,3.8866,3.888,3.8907,3.893,3.8949,3.8954,3.8939,3.8937,3.8945,3.8949,3.895,3.895,3.8838,3.8934,3.8934,3.8933,3.8932,3.8932,3.8795,3.8818,3.883,3.8854,3.8863,3.8877,3.8898,3.89,3.8921,3.8943,3.8936,3.8965,3.8975,3.8999,3.9006,3.9028,3.9014,3.9027,3.903,3.9033,3.9037,3.8947,3.9032,3.9031,3.9031,3.9031,3.9031,0,3.8881,3.8887,3.891,3.893,3.8949,3.8934,3.8948,3.8965,3.899,3.9002,3.902,3.9049,3.9071,3.9074,3.9095,3.9112,3.9105,3.9118,3.9116,3.9118,3.9048,3.9039,3.9122,3.9122,3.9122,3.9122,3.9122,3.9122,3.8928,3.8966,3.8965,3.9008,3.9013,3.9042,3.9052,3.9064,3.9073,3.9106,3.9125,3.9126,3.9134,3.9155,3.9175,3.9175,3.9184,3.9199,3.9196,3.9131,3.9122,3.9114,3.9105,3.9201,3.9201,3.9263,3.9264,3.9264]}]]